Data supplied by UK-AIR on 31/3/2020
All Data GMT hour ending 
Status: R =Ratified P=Provisional,P*=As supplied
,,Saltash Callington Road,,,,,,,,,,,,,,,,,,,,,,,
Date,time,"PM<sub>10</sub> particulate matter (Hourly measured)",status,unit,"PM<sub>2.5</sub> particulate matter (Hourly measured)",status,unit
 
01-01-2019,01:00,22.223,R,ugm-3 (Ref.eq),17.000,R,ugm-3 (BAM)
01-01-2019,02:00,14.493,R,ugm-3 (Ref.eq),8.000,R,ugm-3 (BAM)
01-01-2019,03:00,16.425,R,ugm-3 (Ref.eq),6.000,R,ugm-3 (BAM)
01-01-2019,04:00,14.493,R,ugm-3 (Ref.eq),4.000,R,ugm-3 (BAM)
01-01-2019,05:00,8.696,R,ugm-3 (Ref.eq),4.000,R,ugm-3 (BAM)
01-01-2019,06:00,9.662,R,ugm-3 (Ref.eq),7.000,R,ugm-3 (BAM)
01-01-2019,07:00,9.662,R,ugm-3 (Ref.eq),6.000,R,ugm-3 (BAM)
01-01-2019,08:00,13.527,R,ugm-3 (Ref.eq),6.000,R,ugm-3 (BAM)
01-01-2019,09:00,12.561,R,ugm-3 (Ref.eq),8.000,R,ugm-3 (BAM)
01-01-2019,10:00,17.392,R,ugm-3 (Ref.eq),5.000,R,ugm-3 (BAM)
01-01-2019,11:00,18.358,R,ugm-3 (Ref.eq),6.000,R,ugm-3 (BAM)
01-01-2019,12:00,19.324,R,ugm-3 (Ref.eq),6.000,R,ugm-3 (BAM)
01-01-2019,13:00,16.425,R,ugm-3 (Ref.eq),8.000,R,ugm-3 (BAM)
01-01-2019,14:00,20.290,R,ugm-3 (Ref.eq),7.000,R,ugm-3 (BAM)
01-01-2019,15:00,14.493,R,ugm-3 (Ref.eq),11.000,R,ugm-3 (BAM)
01-01-2019,16:00,13.527,R,ugm-3 (Ref.eq),7.000,R,ugm-3 (BAM)
01-01-2019,17:00,17.392,R,ugm-3 (Ref.eq),9.000,R,ugm-3 (BAM)
01-01-2019,18:00,25.121,R,ugm-3 (Ref.eq),14.000,R,ugm-3 (BAM)
01-01-2019,19:00,26.087,R,ugm-3 (Ref.eq),11.000,R,ugm-3 (BAM)
01-01-2019,20:00,19.324,R,ugm-3 (Ref.eq),9.000,R,ugm-3 (BAM)
01-01-2019,21:00,18.358,R,ugm-3 (Ref.eq),13.000,R,ugm-3 (BAM)
01-01-2019,22:00,17.392,R,ugm-3 (Ref.eq),9.000,R,ugm-3 (BAM)
01-01-2019,23:00,10.628,R,ugm-3 (Ref.eq),8.000,R,ugm-3 (BAM)
01-01-2019,24:00,7.730,R,ugm-3 (Ref.eq),9.000,R,ugm-3 (BAM)
02-01-2019,01:00,5.797,R,ugm-3 (Ref.eq),7.000,R,ugm-3 (BAM)
02-01-2019,02:00,8.696,R,ugm-3 (Ref.eq),4.000,R,ugm-3 (BAM)
02-01-2019,03:00,11.594,R,ugm-3 (Ref.eq),6.000,R,ugm-3 (BAM)
02-01-2019,04:00,16.425,R,ugm-3 (Ref.eq),6.000,R,ugm-3 (BAM)
02-01-2019,05:00,16.425,R,ugm-3 (Ref.eq),7.000,R,ugm-3 (BAM)
02-01-2019,06:00,19.324,R,ugm-3 (Ref.eq),7.000,R,ugm-3 (BAM)
02-01-2019,07:00,15.459,R,ugm-3 (Ref.eq),8.000,R,ugm-3 (BAM)
02-01-2019,08:00,14.493,R,ugm-3 (Ref.eq),7.000,R,ugm-3 (BAM)
02-01-2019,09:00,20.290,R,ugm-3 (Ref.eq),7.000,R,ugm-3 (BAM)
02-01-2019,10:00,20.290,R,ugm-3 (Ref.eq),7.000,R,ugm-3 (BAM)
02-01-2019,11:00,23.189,R,ugm-3 (Ref.eq),5.000,R,ugm-3 (BAM)
02-01-2019,12:00,19.324,R,ugm-3 (Ref.eq),6.000,R,ugm-3 (BAM)
02-01-2019,13:00,15.459,R,ugm-3 (Ref.eq),7.000,R,ugm-3 (BAM)
02-01-2019,14:00,18.358,R,ugm-3 (Ref.eq),6.000,R,ugm-3 (BAM)
02-01-2019,15:00,19.324,R,ugm-3 (Ref.eq),5.000,R,ugm-3 (BAM)
02-01-2019,16:00,22.223,R,ugm-3 (Ref.eq),11.000,R,ugm-3 (BAM)
02-01-2019,17:00,21.256,R,ugm-3 (Ref.eq),8.000,R,ugm-3 (BAM)
02-01-2019,18:00,21.256,R,ugm-3 (Ref.eq),22.000,R,ugm-3 (BAM)
02-01-2019,19:00,27.054,R,ugm-3 (Ref.eq),16.000,R,ugm-3 (BAM)
02-01-2019,20:00,26.087,R,ugm-3 (Ref.eq),14.000,R,ugm-3 (BAM)
02-01-2019,21:00,22.223,R,ugm-3 (Ref.eq),15.000,R,ugm-3 (BAM)
02-01-2019,22:00,22.223,R,ugm-3 (Ref.eq),13.000,R,ugm-3 (BAM)
02-01-2019,23:00,21.256,R,ugm-3 (Ref.eq),11.000,R,ugm-3 (BAM)
02-01-2019,24:00,19.324,R,ugm-3 (Ref.eq),7.000,R,ugm-3 (BAM)
03-01-2019,01:00,19.324,R,ugm-3 (Ref.eq),10.000,R,ugm-3 (BAM)
03-01-2019,02:00,19.324,R,ugm-3 (Ref.eq),11.000,R,ugm-3 (BAM)
03-01-2019,03:00,23.189,R,ugm-3 (Ref.eq),14.000,R,ugm-3 (BAM)
03-01-2019,04:00,24.155,R,ugm-3 (Ref.eq),18.000,R,ugm-3 (BAM)
03-01-2019,05:00,26.087,R,ugm-3 (Ref.eq),22.000,R,ugm-3 (BAM)
03-01-2019,06:00,15.459,R,ugm-3 (Ref.eq),10.000,R,ugm-3 (BAM)
03-01-2019,07:00,16.425,R,ugm-3 (Ref.eq),8.000,R,ugm-3 (BAM)
03-01-2019,08:00,23.189,R,ugm-3 (Ref.eq),16.000,R,ugm-3 (BAM)
03-01-2019,09:00,22.223,R,ugm-3 (Ref.eq),11.000,R,ugm-3 (BAM)
03-01-2019,10:00,28.986,R,ugm-3 (Ref.eq),8.000,R,ugm-3 (BAM)
03-01-2019,11:00,25.121,R,ugm-3 (Ref.eq),18.000,R,ugm-3 (BAM)
03-01-2019,12:00,34.783,R,ugm-3 (Ref.eq),12.000,R,ugm-3 (BAM)
03-01-2019,13:00,36.716,R,ugm-3 (Ref.eq),12.000,R,ugm-3 (BAM)
03-01-2019,14:00,33.817,R,ugm-3 (Ref.eq),10.000,R,ugm-3 (BAM)
03-01-2019,15:00,26.087,R,ugm-3 (Ref.eq),18.000,R,ugm-3 (BAM)
03-01-2019,16:00,29.952,R,ugm-3 (Ref.eq),16.000,R,ugm-3 (BAM)
03-01-2019,17:00,27.054,R,ugm-3 (Ref.eq),15.000,R,ugm-3 (BAM)
03-01-2019,18:00,28.986,R,ugm-3 (Ref.eq),16.000,R,ugm-3 (BAM)
03-01-2019,19:00,31.885,R,ugm-3 (Ref.eq),19.000,R,ugm-3 (BAM)
03-01-2019,20:00,36.716,R,ugm-3 (Ref.eq),19.000,R,ugm-3 (BAM)
03-01-2019,21:00,28.020,R,ugm-3 (Ref.eq),19.000,R,ugm-3 (BAM)
03-01-2019,22:00,19.324,R,ugm-3 (Ref.eq),14.000,R,ugm-3 (BAM)
03-01-2019,23:00,23.189,R,ugm-3 (Ref.eq),17.000,R,ugm-3 (BAM)
03-01-2019,24:00,20.290,R,ugm-3 (Ref.eq),12.000,R,ugm-3 (BAM)
04-01-2019,01:00,15.459,R,ugm-3 (Ref.eq),13.000,R,ugm-3 (BAM)
04-01-2019,02:00,19.324,R,ugm-3 (Ref.eq),10.000,R,ugm-3 (BAM)
04-01-2019,03:00,15.459,R,ugm-3 (Ref.eq),15.000,R,ugm-3 (BAM)
04-01-2019,04:00,10.628,R,ugm-3 (Ref.eq),10.000,R,ugm-3 (BAM)
04-01-2019,05:00,13.527,R,ugm-3 (Ref.eq),7.000,R,ugm-3 (BAM)
04-01-2019,06:00,12.561,R,ugm-3 (Ref.eq),7.000,R,ugm-3 (BAM)
04-01-2019,07:00,16.425,R,ugm-3 (Ref.eq),7.000,R,ugm-3 (BAM)
04-01-2019,08:00,21.256,R,ugm-3 (Ref.eq),8.000,R,ugm-3 (BAM)
04-01-2019,09:00,23.189,R,ugm-3 (Ref.eq),12.000,R,ugm-3 (BAM)
04-01-2019,10:00,27.054,R,ugm-3 (Ref.eq),12.000,R,ugm-3 (BAM)
04-01-2019,11:00,22.223,R,ugm-3 (Ref.eq),9.000,R,ugm-3 (BAM)
04-01-2019,12:00,18.358,R,ugm-3 (Ref.eq),9.000,R,ugm-3 (BAM)
04-01-2019,13:00,16.425,R,ugm-3 (Ref.eq),14.000,R,ugm-3 (BAM)
04-01-2019,14:00,16.425,R,ugm-3 (Ref.eq),10.000,R,ugm-3 (BAM)
04-01-2019,15:00,23.189,R,ugm-3 (Ref.eq),9.000,R,ugm-3 (BAM)
04-01-2019,16:00,24.155,R,ugm-3 (Ref.eq),12.000,R,ugm-3 (BAM)
04-01-2019,17:00,35.749,R,ugm-3 (Ref.eq),21.000,R,ugm-3 (BAM)
04-01-2019,18:00,47.344,R,ugm-3 (Ref.eq),32.000,R,ugm-3 (BAM)
04-01-2019,19:00,39.614,R,ugm-3 (Ref.eq),32.000,R,ugm-3 (BAM)
04-01-2019,20:00,42.513,R,ugm-3 (Ref.eq),30.000,R,ugm-3 (BAM)
04-01-2019,21:00,42.513,R,ugm-3 (Ref.eq),36.000,R,ugm-3 (BAM)
04-01-2019,22:00,49.276,R,ugm-3 (Ref.eq),44.000,R,ugm-3 (BAM)
04-01-2019,23:00,37.682,R,ugm-3 (Ref.eq),35.000,R,ugm-3 (BAM)
04-01-2019,24:00,38.648,R,ugm-3 (Ref.eq),33.000,R,ugm-3 (BAM)
05-01-2019,01:00,29.952,R,ugm-3 (Ref.eq),24.000,R,ugm-3 (BAM)
05-01-2019,02:00,28.020,R,ugm-3 (Ref.eq),26.000,R,ugm-3 (BAM)
05-01-2019,03:00,26.087,R,ugm-3 (Ref.eq),27.000,R,ugm-3 (BAM)
05-01-2019,04:00,28.020,R,ugm-3 (Ref.eq),26.000,R,ugm-3 (BAM)
05-01-2019,05:00,24.155,R,ugm-3 (Ref.eq),19.000,R,ugm-3 (BAM)
05-01-2019,06:00,24.155,R,ugm-3 (Ref.eq),19.000,R,ugm-3 (BAM)
05-01-2019,07:00,22.223,R,ugm-3 (Ref.eq),18.000,R,ugm-3 (BAM)
05-01-2019,08:00,22.223,R,ugm-3 (Ref.eq),21.000,R,ugm-3 (BAM)
05-01-2019,09:00,25.121,R,ugm-3 (Ref.eq),18.000,R,ugm-3 (BAM)
05-01-2019,10:00,28.986,R,ugm-3 (Ref.eq),25.000,R,ugm-3 (BAM)
05-01-2019,11:00,22.223,R,ugm-3 (Ref.eq),17.000,R,ugm-3 (BAM)
05-01-2019,12:00,39.614,R,ugm-3 (Ref.eq),16.000,R,ugm-3 (BAM)
05-01-2019,13:00,42.513,R,ugm-3 (Ref.eq),21.000,R,ugm-3 (BAM)
05-01-2019,14:00,44.445,R,ugm-3 (Ref.eq),24.000,R,ugm-3 (BAM)
05-01-2019,15:00,32.851,R,ugm-3 (Ref.eq),23.000,R,ugm-3 (BAM)
05-01-2019,16:00,37.682,R,ugm-3 (Ref.eq),27.000,R,ugm-3 (BAM)
05-01-2019,17:00,55.073,R,ugm-3 (Ref.eq),45.000,R,ugm-3 (BAM)
05-01-2019,18:00,47.344,R,ugm-3 (Ref.eq),44.000,R,ugm-3 (BAM)
05-01-2019,19:00,55.073,R,ugm-3 (Ref.eq),48.000,R,ugm-3 (BAM)
05-01-2019,20:00,40.580,R,ugm-3 (Ref.eq),38.000,R,ugm-3 (BAM)
05-01-2019,21:00,40.580,R,ugm-3 (Ref.eq),33.000,R,ugm-3 (BAM)
05-01-2019,22:00,38.648,R,ugm-3 (Ref.eq),33.000,R,ugm-3 (BAM)
05-01-2019,23:00,37.682,R,ugm-3 (Ref.eq),32.000,R,ugm-3 (BAM)
05-01-2019,24:00,20.290,R,ugm-3 (Ref.eq),17.000,R,ugm-3 (BAM)
06-01-2019,01:00,28.986,R,ugm-3 (Ref.eq),28.000,R,ugm-3 (BAM)
06-01-2019,02:00,31.885,R,ugm-3 (Ref.eq),36.000,R,ugm-3 (BAM)
06-01-2019,03:00,20.290,R,ugm-3 (Ref.eq),17.000,R,ugm-3 (BAM)
06-01-2019,04:00,25.121,R,ugm-3 (Ref.eq),19.000,R,ugm-3 (BAM)
06-01-2019,05:00,26.087,R,ugm-3 (Ref.eq),23.000,R,ugm-3 (BAM)
06-01-2019,06:00,28.020,R,ugm-3 (Ref.eq),25.000,R,ugm-3 (BAM)
06-01-2019,07:00,20.290,R,ugm-3 (Ref.eq),17.000,R,ugm-3 (BAM)
06-01-2019,08:00,20.290,R,ugm-3 (Ref.eq),19.000,R,ugm-3 (BAM)
06-01-2019,09:00,20.290,R,ugm-3 (Ref.eq),14.000,R,ugm-3 (BAM)
06-01-2019,10:00,27.054,R,ugm-3 (Ref.eq),28.000,R,ugm-3 (BAM)
06-01-2019,11:00,27.054,R,ugm-3 (Ref.eq),22.000,R,ugm-3 (BAM)
06-01-2019,12:00,28.986,R,ugm-3 (Ref.eq),27.000,R,ugm-3 (BAM)
06-01-2019,13:00,33.817,R,ugm-3 (Ref.eq),26.000,R,ugm-3 (BAM)
06-01-2019,14:00,38.648,R,ugm-3 (Ref.eq),29.000,R,ugm-3 (BAM)
06-01-2019,15:00,34.783,R,ugm-3 (Ref.eq),32.000,R,ugm-3 (BAM)
06-01-2019,16:00,49.276,R,ugm-3 (Ref.eq),37.000,R,ugm-3 (BAM)
06-01-2019,17:00,45.411,R,ugm-3 (Ref.eq),39.000,R,ugm-3 (BAM)
06-01-2019,18:00,47.344,R,ugm-3 (Ref.eq),41.000,R,ugm-3 (BAM)
06-01-2019,19:00,48.310,R,ugm-3 (Ref.eq),48.000,R,ugm-3 (BAM)
06-01-2019,20:00,47.344,R,ugm-3 (Ref.eq),48.000,R,ugm-3 (BAM)
06-01-2019,21:00,39.614,R,ugm-3 (Ref.eq),34.000,R,ugm-3 (BAM)
06-01-2019,22:00,37.682,R,ugm-3 (Ref.eq),31.000,R,ugm-3 (BAM)
06-01-2019,23:00,36.716,R,ugm-3 (Ref.eq),34.000,R,ugm-3 (BAM)
06-01-2019,24:00,36.716,R,ugm-3 (Ref.eq),31.000,R,ugm-3 (BAM)
07-01-2019,01:00,34.783,R,ugm-3 (Ref.eq),28.000,R,ugm-3 (BAM)
07-01-2019,02:00,30.918,R,ugm-3 (Ref.eq),20.000,R,ugm-3 (BAM)
07-01-2019,03:00,24.155,R,ugm-3 (Ref.eq),20.000,R,ugm-3 (BAM)
07-01-2019,04:00,24.155,R,ugm-3 (Ref.eq),14.000,R,ugm-3 (BAM)
07-01-2019,05:00,22.223,R,ugm-3 (Ref.eq),13.000,R,ugm-3 (BAM)
07-01-2019,06:00,16.425,R,ugm-3 (Ref.eq),15.000,R,ugm-3 (BAM)
07-01-2019,07:00,19.324,R,ugm-3 (Ref.eq),12.000,R,ugm-3 (BAM)
07-01-2019,08:00,14.493,R,ugm-3 (Ref.eq),9.000,R,ugm-3 (BAM)
07-01-2019,09:00,21.256,R,ugm-3 (Ref.eq),8.000,R,ugm-3 (BAM)
07-01-2019,10:00,18.358,R,ugm-3 (Ref.eq),8.000,R,ugm-3 (BAM)
07-01-2019,11:00,17.392,R,ugm-3 (Ref.eq),8.000,R,ugm-3 (BAM)
07-01-2019,12:00,20.290,R,ugm-3 (Ref.eq),8.000,R,ugm-3 (BAM)
07-01-2019,13:00,25.121,R,ugm-3 (Ref.eq),8.000,R,ugm-3 (BAM)
07-01-2019,14:00,25.121,R,ugm-3 (Ref.eq),8.000,R,ugm-3 (BAM)
07-01-2019,15:00,19.324,R,ugm-3 (Ref.eq),11.000,R,ugm-3 (BAM)
07-01-2019,16:00,16.425,R,ugm-3 (Ref.eq),8.000,R,ugm-3 (BAM)
07-01-2019,17:00,19.324,R,ugm-3 (Ref.eq),9.000,R,ugm-3 (BAM)
07-01-2019,18:00,23.189,R,ugm-3 (Ref.eq),11.000,R,ugm-3 (BAM)
07-01-2019,19:00,20.290,R,ugm-3 (Ref.eq),10.000,R,ugm-3 (BAM)
07-01-2019,20:00,21.256,R,ugm-3 (Ref.eq),9.000,R,ugm-3 (BAM)
07-01-2019,21:00,21.256,R,ugm-3 (Ref.eq),13.000,R,ugm-3 (BAM)
07-01-2019,22:00,13.527,R,ugm-3 (Ref.eq),9.000,R,ugm-3 (BAM)
07-01-2019,23:00,14.493,R,ugm-3 (Ref.eq),9.000,R,ugm-3 (BAM)
07-01-2019,24:00,8.696,R,ugm-3 (Ref.eq),9.000,R,ugm-3 (BAM)
08-01-2019,01:00,5.797,R,ugm-3 (Ref.eq),6.000,R,ugm-3 (BAM)
08-01-2019,02:00,5.797,R,ugm-3 (Ref.eq),3.000,R,ugm-3 (BAM)
08-01-2019,03:00,6.763,R,ugm-3 (Ref.eq),6.000,R,ugm-3 (BAM)
08-01-2019,04:00,16.425,R,ugm-3 (Ref.eq),8.000,R,ugm-3 (BAM)
08-01-2019,05:00,13.527,R,ugm-3 (Ref.eq),7.000,R,ugm-3 (BAM)
08-01-2019,06:00,18.358,R,ugm-3 (Ref.eq),8.000,R,ugm-3 (BAM)
08-01-2019,07:00,18.358,R,ugm-3 (Ref.eq),7.000,R,ugm-3 (BAM)
08-01-2019,08:00,18.358,R,ugm-3 (Ref.eq),9.000,R,ugm-3 (BAM)
08-01-2019,09:00,12.561,R,ugm-3 (Ref.eq),8.000,R,ugm-3 (BAM)
08-01-2019,10:00,16.425,R,ugm-3 (Ref.eq),7.000,R,ugm-3 (BAM)
08-01-2019,11:00,20.290,R,ugm-3 (Ref.eq),6.000,R,ugm-3 (BAM)
08-01-2019,12:00,24.155,R,ugm-3 (Ref.eq),9.000,R,ugm-3 (BAM)
08-01-2019,13:00,19.324,R,ugm-3 (Ref.eq),7.000,R,ugm-3 (BAM)
08-01-2019,14:00,24.155,R,ugm-3 (Ref.eq),6.000,R,ugm-3 (BAM)
08-01-2019,15:00,21.256,R,ugm-3 (Ref.eq),7.000,R,ugm-3 (BAM)
08-01-2019,16:00,26.087,R,ugm-3 (Ref.eq),6.000,R,ugm-3 (BAM)
08-01-2019,17:00,23.189,R,ugm-3 (Ref.eq),8.000,R,ugm-3 (BAM)
08-01-2019,18:00,23.189,R,ugm-3 (Ref.eq),8.000,R,ugm-3 (BAM)
08-01-2019,19:00,21.256,R,ugm-3 (Ref.eq),11.000,R,ugm-3 (BAM)
08-01-2019,20:00,24.155,R,ugm-3 (Ref.eq),11.000,R,ugm-3 (BAM)
08-01-2019,21:00,21.256,R,ugm-3 (Ref.eq),10.000,R,ugm-3 (BAM)
08-01-2019,22:00,23.189,R,ugm-3 (Ref.eq),11.000,R,ugm-3 (BAM)
08-01-2019,23:00,23.189,R,ugm-3 (Ref.eq),9.000,R,ugm-3 (BAM)
08-01-2019,24:00,25.121,R,ugm-3 (Ref.eq),10.000,R,ugm-3 (BAM)
09-01-2019,01:00,27.054,R,ugm-3 (Ref.eq),9.000,R,ugm-3 (BAM)
09-01-2019,02:00,22.223,R,ugm-3 (Ref.eq),7.000,R,ugm-3 (BAM)
09-01-2019,03:00,24.155,R,ugm-3 (Ref.eq),8.000,R,ugm-3 (BAM)
09-01-2019,04:00,21.256,R,ugm-3 (Ref.eq),9.000,R,ugm-3 (BAM)
09-01-2019,05:00,20.290,R,ugm-3 (Ref.eq),9.000,R,ugm-3 (BAM)
09-01-2019,06:00,18.358,R,ugm-3 (Ref.eq),9.000,R,ugm-3 (BAM)
09-01-2019,07:00,16.425,R,ugm-3 (Ref.eq),7.000,R,ugm-3 (BAM)
09-01-2019,08:00,22.223,R,ugm-3 (Ref.eq),11.000,R,ugm-3 (BAM)
09-01-2019,09:00,27.054,R,ugm-3 (Ref.eq),11.000,R,ugm-3 (BAM)
09-01-2019,10:00,26.087,R,ugm-3 (Ref.eq),9.000,R,ugm-3 (BAM)
09-01-2019,11:00,20.290,R,ugm-3 (Ref.eq),7.000,R,ugm-3 (BAM)
09-01-2019,12:00,21.256,R,ugm-3 (Ref.eq),7.000,R,ugm-3 (BAM)
09-01-2019,13:00,26.087,R,ugm-3 (Ref.eq),6.000,R,ugm-3 (BAM)
09-01-2019,14:00,22.223,R,ugm-3 (Ref.eq),6.000,R,ugm-3 (BAM)
09-01-2019,15:00,26.087,R,ugm-3 (Ref.eq),8.000,R,ugm-3 (BAM)
09-01-2019,16:00,25.121,R,ugm-3 (Ref.eq),8.000,R,ugm-3 (BAM)
09-01-2019,17:00,24.155,R,ugm-3 (Ref.eq),9.000,R,ugm-3 (BAM)
09-01-2019,18:00,45.411,R,ugm-3 (Ref.eq),26.000,R,ugm-3 (BAM)
09-01-2019,19:00,32.851,R,ugm-3 (Ref.eq),26.000,R,ugm-3 (BAM)
09-01-2019,20:00,22.223,R,ugm-3 (Ref.eq),19.000,R,ugm-3 (BAM)
09-01-2019,21:00,19.324,R,ugm-3 (Ref.eq),14.000,R,ugm-3 (BAM)
09-01-2019,22:00,22.223,R,ugm-3 (Ref.eq),13.000,R,ugm-3 (BAM)
09-01-2019,23:00,21.256,R,ugm-3 (Ref.eq),19.000,R,ugm-3 (BAM)
09-01-2019,24:00,20.290,R,ugm-3 (Ref.eq),14.000,R,ugm-3 (BAM)
10-01-2019,01:00,20.290,R,ugm-3 (Ref.eq),11.000,R,ugm-3 (BAM)
10-01-2019,02:00,23.189,R,ugm-3 (Ref.eq),17.000,R,ugm-3 (BAM)
10-01-2019,03:00,12.561,R,ugm-3 (Ref.eq),11.000,R,ugm-3 (BAM)
10-01-2019,04:00,16.425,R,ugm-3 (Ref.eq),11.000,R,ugm-3 (BAM)
10-01-2019,05:00,14.493,R,ugm-3 (Ref.eq),11.000,R,ugm-3 (BAM)
10-01-2019,06:00,21.256,R,ugm-3 (Ref.eq),14.000,R,ugm-3 (BAM)
10-01-2019,07:00,20.290,R,ugm-3 (Ref.eq),17.000,R,ugm-3 (BAM)
10-01-2019,08:00,20.290,R,ugm-3 (Ref.eq),17.000,R,ugm-3 (BAM)
10-01-2019,09:00,27.054,R,ugm-3 (Ref.eq),21.000,R,ugm-3 (BAM)
10-01-2019,10:00,,,,,,
10-01-2019,11:00,,,,,,
10-01-2019,12:00,,,,,,
10-01-2019,13:00,,,,,,
10-01-2019,14:00,,,,,,
10-01-2019,15:00,,,,,,
10-01-2019,16:00,,,,,,
10-01-2019,17:00,,,,,,
10-01-2019,18:00,,,,,,
10-01-2019,19:00,,,,,,
10-01-2019,20:00,,,,,,
10-01-2019,21:00,,,,,,
10-01-2019,22:00,,,,,,
10-01-2019,23:00,,,,,,
10-01-2019,24:00,,,,,,
11-01-2019,01:00,,,,,,
11-01-2019,02:00,,,,,,
11-01-2019,03:00,,,,,,
11-01-2019,04:00,,,,,,
11-01-2019,05:00,,,,,,
11-01-2019,06:00,,,,,,
11-01-2019,07:00,,,,,,
11-01-2019,08:00,,,,,,
11-01-2019,09:00,,,,,,
11-01-2019,10:00,,,,,,
11-01-2019,11:00,,,,,,
11-01-2019,12:00,,,,,,
11-01-2019,13:00,,,,,,
11-01-2019,14:00,,,,,,
11-01-2019,15:00,,,,,,
11-01-2019,16:00,,,,,,
11-01-2019,17:00,,,,,,
11-01-2019,18:00,,,,,,
11-01-2019,19:00,,,,,,
11-01-2019,20:00,,,,,,
11-01-2019,21:00,,,,,,
11-01-2019,22:00,,,,,,
11-01-2019,23:00,,,,,,
11-01-2019,24:00,,,,,,
12-01-2019,01:00,,,,,,
12-01-2019,02:00,,,,,,
12-01-2019,03:00,,,,,,
12-01-2019,04:00,,,,,,
12-01-2019,05:00,,,,,,
12-01-2019,06:00,,,,,,
12-01-2019,07:00,,,,,,
12-01-2019,08:00,,,,,,
12-01-2019,09:00,,,,,,
12-01-2019,10:00,,,,,,
12-01-2019,11:00,,,,,,
12-01-2019,12:00,,,,,,
12-01-2019,13:00,,,,,,
12-01-2019,14:00,,,,,,
12-01-2019,15:00,,,,,,
12-01-2019,16:00,,,,,,
12-01-2019,17:00,,,,,,
12-01-2019,18:00,,,,,,
12-01-2019,19:00,,,,,,
12-01-2019,20:00,,,,,,
12-01-2019,21:00,,,,,,
12-01-2019,22:00,,,,,,
12-01-2019,23:00,,,,,,
12-01-2019,24:00,,,,,,
13-01-2019,01:00,,,,,,
13-01-2019,02:00,,,,,,
13-01-2019,03:00,,,,,,
13-01-2019,04:00,,,,,,
13-01-2019,05:00,,,,,,
13-01-2019,06:00,,,,,,
13-01-2019,07:00,,,,,,
13-01-2019,08:00,,,,,,
13-01-2019,09:00,,,,,,
13-01-2019,10:00,,,,,,
13-01-2019,11:00,,,,,,
13-01-2019,12:00,,,,,,
13-01-2019,13:00,,,,,,
13-01-2019,14:00,,,,,,
13-01-2019,15:00,,,,,,
13-01-2019,16:00,,,,,,
13-01-2019,17:00,,,,,,
13-01-2019,18:00,,,,,,
13-01-2019,19:00,,,,,,
13-01-2019,20:00,,,,,,
13-01-2019,21:00,,,,,,
13-01-2019,22:00,,,,,,
13-01-2019,23:00,,,,,,
13-01-2019,24:00,,,,,,
14-01-2019,01:00,,,,,,
14-01-2019,02:00,,,,,,
14-01-2019,03:00,,,,,,
14-01-2019,04:00,,,,,,
14-01-2019,05:00,,,,,,
14-01-2019,06:00,,,,,,
14-01-2019,07:00,,,,,,
14-01-2019,08:00,,,,,,
14-01-2019,09:00,,,,,,
14-01-2019,10:00,,,,,,
14-01-2019,11:00,,,,,,
14-01-2019,12:00,,,,2.000,R,ugm-3 (BAM)
14-01-2019,13:00,16.425,R,ugm-3 (Ref.eq),4.000,R,ugm-3 (BAM)
14-01-2019,14:00,14.493,R,ugm-3 (Ref.eq),2.000,R,ugm-3 (BAM)
14-01-2019,15:00,9.662,R,ugm-3 (Ref.eq),2.000,R,ugm-3 (BAM)
14-01-2019,16:00,19.324,R,ugm-3 (Ref.eq),4.000,R,ugm-3 (BAM)
14-01-2019,17:00,17.392,R,ugm-3 (Ref.eq),3.000,R,ugm-3 (BAM)
14-01-2019,18:00,22.223,R,ugm-3 (Ref.eq),11.000,R,ugm-3 (BAM)
14-01-2019,19:00,20.290,R,ugm-3 (Ref.eq),10.000,R,ugm-3 (BAM)
14-01-2019,20:00,19.324,R,ugm-3 (Ref.eq),10.000,R,ugm-3 (BAM)
14-01-2019,21:00,15.459,R,ugm-3 (Ref.eq),12.000,R,ugm-3 (BAM)
14-01-2019,22:00,18.358,R,ugm-3 (Ref.eq),10.000,R,ugm-3 (BAM)
14-01-2019,23:00,13.527,R,ugm-3 (Ref.eq),7.000,R,ugm-3 (BAM)
14-01-2019,24:00,11.594,R,ugm-3 (Ref.eq),7.000,R,ugm-3 (BAM)
15-01-2019,01:00,12.561,R,ugm-3 (Ref.eq),7.000,R,ugm-3 (BAM)
15-01-2019,02:00,13.527,R,ugm-3 (Ref.eq),4.000,R,ugm-3 (BAM)
15-01-2019,03:00,15.459,R,ugm-3 (Ref.eq),3.000,R,ugm-3 (BAM)
15-01-2019,04:00,13.527,R,ugm-3 (Ref.eq),8.000,R,ugm-3 (BAM)
15-01-2019,05:00,16.425,R,ugm-3 (Ref.eq),6.000,R,ugm-3 (BAM)
15-01-2019,06:00,12.561,R,ugm-3 (Ref.eq),6.000,R,ugm-3 (BAM)
15-01-2019,07:00,6.763,R,ugm-3 (Ref.eq),4.000,R,ugm-3 (BAM)
15-01-2019,08:00,6.763,R,ugm-3 (Ref.eq),3.000,R,ugm-3 (BAM)
15-01-2019,09:00,6.763,R,ugm-3 (Ref.eq),1.000,R,ugm-3 (BAM)
15-01-2019,10:00,3.865,R,ugm-3 (Ref.eq),1.000,R,ugm-3 (BAM)
15-01-2019,11:00,5.797,R,ugm-3 (Ref.eq),3.000,R,ugm-3 (BAM)
15-01-2019,12:00,5.797,R,ugm-3 (Ref.eq),2.000,R,ugm-3 (BAM)
15-01-2019,13:00,4.831,R,ugm-3 (Ref.eq),2.000,R,ugm-3 (BAM)
15-01-2019,14:00,3.865,R,ugm-3 (Ref.eq),6.000,R,ugm-3 (BAM)
15-01-2019,15:00,2.899,R,ugm-3 (Ref.eq),6.000,R,ugm-3 (BAM)
15-01-2019,16:00,3.865,R,ugm-3 (Ref.eq),3.000,R,ugm-3 (BAM)
15-01-2019,17:00,5.797,R,ugm-3 (Ref.eq),3.000,R,ugm-3 (BAM)
15-01-2019,18:00,2.899,R,ugm-3 (Ref.eq),4.000,R,ugm-3 (BAM)
15-01-2019,19:00,8.696,R,ugm-3 (Ref.eq),4.000,R,ugm-3 (BAM)
15-01-2019,20:00,7.730,R,ugm-3 (Ref.eq),7.000,R,ugm-3 (BAM)
15-01-2019,21:00,4.831,R,ugm-3 (Ref.eq),4.000,R,ugm-3 (BAM)
15-01-2019,22:00,7.730,R,ugm-3 (Ref.eq),2.000,R,ugm-3 (BAM)
15-01-2019,23:00,10.628,R,ugm-3 (Ref.eq),5.000,R,ugm-3 (BAM)
15-01-2019,24:00,17.392,R,ugm-3 (Ref.eq),9.000,R,ugm-3 (BAM)
16-01-2019,01:00,17.392,R,ugm-3 (Ref.eq),6.000,R,ugm-3 (BAM)
16-01-2019,02:00,14.493,R,ugm-3 (Ref.eq),7.000,R,ugm-3 (BAM)
16-01-2019,03:00,10.628,R,ugm-3 (Ref.eq),6.000,R,ugm-3 (BAM)
16-01-2019,04:00,10.628,R,ugm-3 (Ref.eq),3.000,R,ugm-3 (BAM)
16-01-2019,05:00,11.594,R,ugm-3 (Ref.eq),6.000,R,ugm-3 (BAM)
16-01-2019,06:00,16.425,R,ugm-3 (Ref.eq),7.000,R,ugm-3 (BAM)
16-01-2019,07:00,17.392,R,ugm-3 (Ref.eq),10.000,R,ugm-3 (BAM)
16-01-2019,08:00,4.831,R,ugm-3 (Ref.eq),6.000,R,ugm-3 (BAM)
16-01-2019,09:00,2.899,R,ugm-3 (Ref.eq),5.000,R,ugm-3 (BAM)
16-01-2019,10:00,6.763,R,ugm-3 (Ref.eq),4.000,R,ugm-3 (BAM)
16-01-2019,11:00,9.662,R,ugm-3 (Ref.eq),5.000,R,ugm-3 (BAM)
16-01-2019,12:00,8.696,R,ugm-3 (Ref.eq),6.000,R,ugm-3 (BAM)
16-01-2019,13:00,4.831,R,ugm-3 (Ref.eq),3.000,R,ugm-3 (BAM)
16-01-2019,14:00,3.865,R,ugm-3 (Ref.eq),2.000,R,ugm-3 (BAM)
16-01-2019,15:00,4.831,R,ugm-3 (Ref.eq),5.000,R,ugm-3 (BAM)
16-01-2019,16:00,6.763,R,ugm-3 (Ref.eq),5.000,R,ugm-3 (BAM)
16-01-2019,17:00,11.594,R,ugm-3 (Ref.eq),12.000,R,ugm-3 (BAM)
16-01-2019,18:00,14.493,R,ugm-3 (Ref.eq),9.000,R,ugm-3 (BAM)
16-01-2019,19:00,8.696,R,ugm-3 (Ref.eq),6.000,R,ugm-3 (BAM)
16-01-2019,20:00,7.730,R,ugm-3 (Ref.eq),5.000,R,ugm-3 (BAM)
16-01-2019,21:00,7.730,R,ugm-3 (Ref.eq),5.000,R,ugm-3 (BAM)
16-01-2019,22:00,10.628,R,ugm-3 (Ref.eq),3.000,R,ugm-3 (BAM)
16-01-2019,23:00,11.594,R,ugm-3 (Ref.eq),3.000,R,ugm-3 (BAM)
16-01-2019,24:00,8.696,R,ugm-3 (Ref.eq),1.000,R,ugm-3 (BAM)
17-01-2019,01:00,11.594,R,ugm-3 (Ref.eq),4.000,R,ugm-3 (BAM)
17-01-2019,02:00,8.696,R,ugm-3 (Ref.eq),4.000,R,ugm-3 (BAM)
17-01-2019,03:00,7.730,R,ugm-3 (Ref.eq),4.000,R,ugm-3 (BAM)
17-01-2019,04:00,6.763,R,ugm-3 (Ref.eq),5.000,R,ugm-3 (BAM)
17-01-2019,05:00,3.865,R,ugm-3 (Ref.eq),4.000,R,ugm-3 (BAM)
17-01-2019,06:00,0.966,R,ugm-3 (Ref.eq),2.000,R,ugm-3 (BAM)
17-01-2019,07:00,6.763,R,ugm-3 (Ref.eq),0.000,R,ugm-3 (BAM)
17-01-2019,08:00,10.628,R,ugm-3 (Ref.eq),4.000,R,ugm-3 (BAM)
17-01-2019,09:00,13.527,R,ugm-3 (Ref.eq),5.000,R,ugm-3 (BAM)
17-01-2019,10:00,12.561,R,ugm-3 (Ref.eq),4.000,R,ugm-3 (BAM)
17-01-2019,11:00,17.392,R,ugm-3 (Ref.eq),8.000,R,ugm-3 (BAM)
17-01-2019,12:00,16.425,R,ugm-3 (Ref.eq),7.000,R,ugm-3 (BAM)
17-01-2019,13:00,19.324,R,ugm-3 (Ref.eq),5.000,R,ugm-3 (BAM)
17-01-2019,14:00,18.358,R,ugm-3 (Ref.eq),6.000,R,ugm-3 (BAM)
17-01-2019,15:00,17.392,R,ugm-3 (Ref.eq),7.000,R,ugm-3 (BAM)
17-01-2019,16:00,28.020,R,ugm-3 (Ref.eq),6.000,R,ugm-3 (BAM)
17-01-2019,17:00,37.682,R,ugm-3 (Ref.eq),15.000,R,ugm-3 (BAM)
17-01-2019,18:00,39.614,R,ugm-3 (Ref.eq),21.000,R,ugm-3 (BAM)
17-01-2019,19:00,47.344,R,ugm-3 (Ref.eq),27.000,R,ugm-3 (BAM)
17-01-2019,20:00,32.851,R,ugm-3 (Ref.eq),24.000,R,ugm-3 (BAM)
17-01-2019,21:00,34.783,R,ugm-3 (Ref.eq),32.000,R,ugm-3 (BAM)
17-01-2019,22:00,33.817,R,ugm-3 (Ref.eq),25.000,R,ugm-3 (BAM)
17-01-2019,23:00,23.189,R,ugm-3 (Ref.eq),24.000,R,ugm-3 (BAM)
17-01-2019,24:00,24.155,R,ugm-3 (Ref.eq),21.000,R,ugm-3 (BAM)
18-01-2019,01:00,12.561,R,ugm-3 (Ref.eq),5.000,R,ugm-3 (BAM)
18-01-2019,02:00,8.696,R,ugm-3 (Ref.eq),4.000,R,ugm-3 (BAM)
18-01-2019,03:00,4.831,R,ugm-3 (Ref.eq),4.000,R,ugm-3 (BAM)
18-01-2019,04:00,8.696,R,ugm-3 (Ref.eq),4.000,R,ugm-3 (BAM)
18-01-2019,05:00,11.594,R,ugm-3 (Ref.eq),2.000,R,ugm-3 (BAM)
18-01-2019,06:00,11.594,R,ugm-3 (Ref.eq),4.000,R,ugm-3 (BAM)
18-01-2019,07:00,10.628,R,ugm-3 (Ref.eq),4.000,R,ugm-3 (BAM)
18-01-2019,08:00,11.594,R,ugm-3 (Ref.eq),5.000,R,ugm-3 (BAM)
18-01-2019,09:00,17.392,R,ugm-3 (Ref.eq),5.000,R,ugm-3 (BAM)
18-01-2019,10:00,16.425,R,ugm-3 (Ref.eq),3.000,R,ugm-3 (BAM)
18-01-2019,11:00,15.459,R,ugm-3 (Ref.eq),8.000,R,ugm-3 (BAM)
18-01-2019,12:00,16.425,R,ugm-3 (Ref.eq),8.000,R,ugm-3 (BAM)
18-01-2019,13:00,12.561,R,ugm-3 (Ref.eq),7.000,R,ugm-3 (BAM)
18-01-2019,14:00,15.459,R,ugm-3 (Ref.eq),12.000,R,ugm-3 (BAM)
18-01-2019,15:00,14.493,R,ugm-3 (Ref.eq),7.000,R,ugm-3 (BAM)
18-01-2019,16:00,11.594,R,ugm-3 (Ref.eq),4.000,R,ugm-3 (BAM)
18-01-2019,17:00,19.324,R,ugm-3 (Ref.eq),13.000,R,ugm-3 (BAM)
18-01-2019,18:00,9.662,R,ugm-3 (Ref.eq),8.000,R,ugm-3 (BAM)
18-01-2019,19:00,16.425,R,ugm-3 (Ref.eq),13.000,R,ugm-3 (BAM)
18-01-2019,20:00,28.986,R,ugm-3 (Ref.eq),25.000,R,ugm-3 (BAM)
18-01-2019,21:00,17.392,R,ugm-3 (Ref.eq),16.000,R,ugm-3 (BAM)
18-01-2019,22:00,26.087,R,ugm-3 (Ref.eq),26.000,R,ugm-3 (BAM)
18-01-2019,23:00,24.155,R,ugm-3 (Ref.eq),25.000,R,ugm-3 (BAM)
18-01-2019,24:00,23.189,R,ugm-3 (Ref.eq),21.000,R,ugm-3 (BAM)
19-01-2019,01:00,20.290,R,ugm-3 (Ref.eq),18.000,R,ugm-3 (BAM)
19-01-2019,02:00,13.527,R,ugm-3 (Ref.eq),14.000,R,ugm-3 (BAM)
19-01-2019,03:00,17.392,R,ugm-3 (Ref.eq),20.000,R,ugm-3 (BAM)
19-01-2019,04:00,16.425,R,ugm-3 (Ref.eq),12.000,R,ugm-3 (BAM)
19-01-2019,05:00,13.527,R,ugm-3 (Ref.eq),16.000,R,ugm-3 (BAM)
19-01-2019,06:00,10.628,R,ugm-3 (Ref.eq),13.000,R,ugm-3 (BAM)
19-01-2019,07:00,8.696,R,ugm-3 (Ref.eq),15.000,R,ugm-3 (BAM)
19-01-2019,08:00,8.696,R,ugm-3 (Ref.eq),10.000,R,ugm-3 (BAM)
19-01-2019,09:00,9.662,R,ugm-3 (Ref.eq),10.000,R,ugm-3 (BAM)
19-01-2019,10:00,17.392,R,ugm-3 (Ref.eq),10.000,R,ugm-3 (BAM)
19-01-2019,11:00,7.730,R,ugm-3 (Ref.eq),9.000,R,ugm-3 (BAM)
19-01-2019,12:00,13.527,R,ugm-3 (Ref.eq),10.000,R,ugm-3 (BAM)
19-01-2019,13:00,8.696,R,ugm-3 (Ref.eq),8.000,R,ugm-3 (BAM)
19-01-2019,14:00,8.696,R,ugm-3 (Ref.eq),6.000,R,ugm-3 (BAM)
19-01-2019,15:00,5.797,R,ugm-3 (Ref.eq),5.000,R,ugm-3 (BAM)